Beaufort, NC

9:33 PM EST on December 10, 2019 (GMT -0500)
Smith

Weather History for KMRH - October, 2019

Change the Weather History Date:

Sunday, October 6, 2019

  Actual Average Record
Temperature  
Mean Temperature 72 °F -  
Max Temperature 82 °F 78 °F 93 °F (1986)
Min Temperature 64 °F 59 °F 45 °F (1965)
Cooling Degree Days 8    
Growing Degree Days 22 (Base 50)    
Moisture  
Dew Point 62 °F    
Average Humidity 68    
Maximum Humidity 87    
Minimum Humidity 49    
Precipitation  
Precipitation 0.00 in - - ()
Sea Level Pressure  
Sea Level Pressure 30.24 in    
Wind  
Wind Speed 7 mph (East)    
Max Wind Speed 16 mph    
Max Gust Speed 23 mph    
Visibility 10 miles    
Events      
Averages and records for this station are not official NWS values.
T = Trace of Precipitation, MM = Missing Value Source: NWS Daily Summary

Daily Weather History Graph

Daily Weather History Graph

Search for Another Location

Airport or City:

Astronomy

Oct. 06, 2019 Rise Set
Actual Time 7:04 AM EDT 6:44 PM EDT
Civil Twilight 6:39 AM EDT 7:09 PM EDT
Nautical Twilight 6:10 AM EDT 7:38 PM EDT
Astronomical Twilight 5:41 AM EDT 8:07 PM EDT
Moon 3:03 PM EDT (10/6) 12:19 AM EDT (10/6)
Length of Visible Light 12h 29m
Length of Day
11h 39m
First Quarter, 59% of the Moon is Illuminated
Oct 6
First Quarter
Oct 13
Full
Oct 21
Last Quarter
Oct 27
New
Nov 4
First Quarter

Hourly Weather History & Observations

Time (EDT) Temp. Heat Index Dew Point Humidity Pressure Visibility Wind Dir Wind Speed Gust Speed Precip Events Conditions
12:58 AM 71.1 °F - 62.1 °F 73% 30.22 in 10.0 mi East 4.6 mph - N/A   Partly Cloudy
1:58 AM 73.0 °F - 62.1 °F 68% 30.22 in 10.0 mi Variable 4.6 mph - N/A   Clear
2:58 AM 69.1 °F - 61.0 °F 75% 30.21 in 10.0 mi East 3.5 mph - N/A   Clear
3:58 AM 66.9 °F - 60.1 °F 79% 30.20 in 10.0 mi Calm Calm - N/A   Clear
4:58 AM 64.9 °F - 59.0 °F 81% 30.20 in 10.0 mi NNE 3.5 mph - N/A   Clear
5:58 AM 64.9 °F - 60.1 °F 84% 30.22 in 10.0 mi NNE 3.5 mph - N/A   Partly Cloudy
6:58 AM 64.9 °F - 61.0 °F 87% 30.22 in 10.0 mi ENE 3.5 mph - N/A   Mostly Cloudy
7:58 AM 73.9 °F - 64.0 °F 71% 30.24 in 10.0 mi East 9.2 mph - N/A   Mostly Cloudy
8:58 AM 77.0 °F - 62.1 °F 60% 30.25 in 10.0 mi ESE 9.2 mph 18.4 mph N/A   Clear
9:58 AM 78.1 °F - 63.0 °F 60% 30.26 in 10.0 mi ESE 8.1 mph - N/A   Clear
10:58 AM 79.0 °F - 62.1 °F 56% 30.28 in 10.0 mi East 11.5 mph 21.9 mph N/A   Partly Cloudy
11:58 AM 81.0 °F 81.6 °F 60.1 °F 49% 30.28 in 10.0 mi ESE 16.1 mph 23.0 mph N/A   Clear
12:58 PM 81.0 °F 81.6 °F 60.1 °F 49% 30.27 in 10.0 mi ESE 16.1 mph 21.9 mph N/A   Clear
1:58 PM 80.1 °F 81.1 °F 61.0 °F 52% 30.26 in 10.0 mi ESE 13.8 mph 21.9 mph N/A   Partly Cloudy
2:58 PM 78.1 °F - 60.1 °F 54% 30.25 in 10.0 mi East 9.2 mph - N/A   Clear
3:58 PM 78.1 °F - 63.0 °F 60% 30.25 in 10.0 mi ESE 8.1 mph 19.6 mph N/A   Clear
4:58 PM 77.0 °F - 64.0 °F 64% 30.25 in 10.0 mi ESE 13.8 mph 18.4 mph N/A   Clear
5:58 PM 75.9 °F - 62.1 °F 62% 30.24 in 10.0 mi East 8.1 mph - N/A   Scattered Clouds
6:58 PM 75.0 °F - 63.0 °F 66% 30.24 in 10.0 mi East 4.6 mph - N/A   Scattered Clouds
7:58 PM 73.9 °F - 62.1 °F 66% 30.24 in 10.0 mi East 4.6 mph - N/A   Clear
8:58 PM 75.0 °F - 64.9 °F 71% 30.25 in 10.0 mi ESE 11.5 mph 20.7 mph N/A   Mostly Cloudy
9:58 PM 73.0 °F - 66.0 °F 79% 30.25 in 10.0 mi ESE 8.1 mph 17.3 mph N/A   Overcast
10:58 PM 73.0 °F - 64.9 °F 76% 30.23 in 10.0 mi ESE 6.9 mph - N/A   Clear
11:58 PM 70.0 °F - 64.9 °F 84% 30.21 in 10.0 mi NNE 3.5 mph - N/A   Clear